Regional Weather Roundup
Issued by NWS

Home | Current Version | Previous Version | Graphics & Text | Print | Product List | Glossary Off
Versions: 1 2 3 4 5 6 7 8 9 10 11 12 13 14 15 16 17 18 19 20 21 22 23 24 25 26 27 28 29 30 31 32 33 34 35 36 37 38 39 40 41 42 43 44 45 46 47 48 49 50

000
ASUS43 KTOP 261408
RWRKS

WEATHER ROUNDUP FOR KANSAS
NATIONAL WEATHER SERVICE GOODLAND KS
800 AM CST FRI DEC 26 2014

NOTE:  "FAIR" INDICATES FEW OR NO CLOUDS BELOW 12,000 FEET WITH NO
SIGNIFICANT WEATHER AND/OR OBSTRUCTIONS TO VISIBILITY.

KSZ001>006-013>018-027>032-041>047-261500-
NORTHWEST KANSAS

CITY           SKY/WX    TMP DP  RH WIND       PRES   REMARKS
GOODLAND       CLOUDY    24  22  91 N13       29.95R FOG     WCI  12
HAYS           CLOUDY    30  19  64 N12G22    29.95R WCI  21
HILL CITY      CLOUDY    28  22  78 N20       29.96R WCI  15
RUSSELL        CLOUDY    30  27  88 N13G25    29.94R WCI  20
$$

KSZ061>065-074>080-084>089-261500-
SOUTHWEST KANSAS

CITY           SKY/WX    TMP DP  RH WIND       PRES   REMARKS
DODGE CITY     CLOUDY    29  24  82 N17       29.92R WCI  17
ELKHART          N/A     27  19  72 N14         N/A  WCI  16
GARDEN CITY    CLOUDY    28  23  81 N15       29.93R WCI  16
GREAT BEND     CLOUDY    30  25  80 N15       29.94R WCI  19
LIBERAL        CLOUDY    30  21  69 N14       29.91F WCI  20
PRATT          CLOUDY    32  30  93 N12       29.91R WCI  23
$$

KSZ066>073-081>083-090>101-261500-
SOUTHEAST KANSAS

CITY           SKY/WX    TMP DP  RH WIND       PRES   REMARKS
CHANUTE        CLOUDY    44  40  85 S13       29.92R
COFFEYVILLE    CLOUDY    45  40  82 MISG      29.94R
HUTCHINSON     CLOUDY    34  30  85 N14G21    29.91R WCI  25
MEDICINE LODGE   N/A     33  30  88 N14G21    29.88R WCI  23
NEWTON         CLOUDY    30  27  86 N13       29.90S WCI  20
PARSONS        CLOUDY    46  41  82 S6        29.94R
WICHITA INTL   CLOUDY    34  29  82 N14G20    29.89R WCI  25
WICHITA JABRA  CLOUDY    32  29  88 N9        29.88R
WICHITA MCCONL CLOUDY    34  29  83 NE10      29.88S WCI  26
WINFIELD       MOCLDY    42  36  79 SE7       29.89R
$$

KSZ007>012-019>026-033>040-048>060-102>105-261500-
NORTHEAST KANSAS

CITY           SKY/WX    TMP DP  RH WIND       PRES   REMARKS
CONCORDIA      CLOUDY    32  29  88 NE13G25   29.97R WCI  22
EMPORIA        CLOUDY    39  31  72 W8        29.89R
LAWRENCE       CLOUDY    44  34  67 S6        29.90R
MANHATTAN      CLOUDY    34  32  92 N9        29.93R
MARYSVILLE     CLOUDY    32  32 100 N10       29.94R FOG     WCI  24
OLATHE IND     CLOUDY    44  37  76 S9        29.92R
OLATHE EXE     CLOUDY    45  37  73 S9        29.91R
SALINA         CLOUDY    35  30  82 N17       29.94R WCI  25
TOPEKA BILLARD CLOUDY    37  33  85 CALM      29.91R
TOPEKA FORBES  CLOUDY    41  33  73 SW3       29.90R
$$



USA.gov is the U.S. government's official web portal to all federal, state and local government web resources and services.